Location: Buenos Aires
(34.6076°S, 58.4371°W)
Time: 18:38:22
(UTC+00:00)

ISS - Pass Details

Date: 11 October 2025
Orbit: 414 x 421 km, 51.6° (Epoch: 07 November)

Event Time Altitude Azimuth Distance (km) Brightness Sun altitude
Rises 23:38:15 0° 280° (W) 2,370 1.0 -19.2°
Reaches altitude 10° 23:40:44 10° 262° (W) 1,510 0.2 -19.6°
Maximum altitude 23:43:20 20° 212° (SSW) 1,042 -1.1 -20.1°
Drops below altitude 10° 23:45:56 10° 162° (SSE) 1,517 -0.9 -20.6°
Enters shadow 23:46:47 - 154° (SSE) 1,791 -0.6 -20.8°
